Location: Santa Cristina
(46.5667°N, 11.7167°E)
Time: 04:49:10
(UTC+00:00)

Cosmos 1908 Rocket - Pass Details

Date: 21 April 2021
Orbit: 607 x 631 km, 82.5° (Epoch: 10 May)

Event Time Altitude Azimuth Distance (km) Brightness Sun altitude
Rises 01:18:40 0° 350° (N) 2,913 7.7 -25.0°
Reaches altitude 10° 01:20:54 10° 349° (N) 2,005 6.7 -24.8°
Enters shadow 01:25:07 78° 316° (NW) 646 3.5 -24.4°
